Voltar ao catálogo

COSMOS 2251 DEB

AtivoLEO
NORAD 34276·DEBRIS·🇷🇺 Russia

Lançado Jun 16, 1993 de Plesetsk Cosmodrome

Loading…

Próximas Passagens (próximas 24 horas)

TLE

AtualizadoSource: Space-Track

Época: Sep 14, 2026, 19:38 UTC

1 34276U 93036LW  26257.81820620  .00001497  00000-0  32658-3 0  9990
2 34276  74.0199 279.7084 0022703 348.0445 186.4641 14.58643772926164

Acompanhe COSMOS 2251 DEB em tempo real com AllMySat

Download on the App Store